Vorticity
6 10 5 -0 16 7 2 -8 4 10 4 2 4 4 3 5 3 3 3 2 2 2 2 3 4 3 4 3 4 3 8 7 7 5 4 4 5 15 5 4 5 6 7
5 -7 8 17 -4 5 14 9 4 3 3 2 2 1 3 3 4 4 5 5 5 4 4 3 2 2 2 3 3 5 4 9 6 5 4 4 5 5 9 6 0 5 6
2 20 10 -5 7 -3 -13 2 4 4 4 5 7 6 6 6 7 6 6 6 6 6 5 4 3 2 3 3 4 4 5 1 13 5 3 4 5 5 5 7 6 1 5
-4 -8 -3 3 7 8 8 2 3 3 2 4 5 5 3 3 4 5 7 6 7 6 6 5 5 6 6 5 4 4 4 6 2 9 3 1 1 3 5 6 4 6 4
2 4 7 4 8 3 1 3 3 3 3 2 5 6 6 6 6 4 4 4 4 5 5 6 7 8 7 5 5 5 5 4 4 5 3 4 4 4 4 5 6 4 4
-2 10 7 2 -1 5 5 5 6 6 6 7 9 10 10 10 10 10 9 9 9 9 8 7 8 8 7 5 7 7 4 5 5 5 5 4 3 3 3 3 5 6 4
10 9 2 3 5 6 6 6 6 6 5 5 6 7 8 8 9 9 8 8 8 9 9 9 8 7 6 6 9 9 7 8 6 5 4 5 4 3 4 5 3 3 5
7 7 7 6 5 5 5 5 6 7 8 7 8 8 8 7 5 4 4 4 3 3 5 6 6 6 6 7 9 9 8 9 9 8 7 5 5 5 4 3 6 4 3
3 4 5 6 7 7 6 7 7 7 5 3 3 3 3 3 3 3 2 3 3 3 3 3 2 2 2 2 2 3 4 5 6 7 9 11 7 5 4 5 4 3 6
6 6 5 6 7 6 4 3 2 2 2 4 4 3 2 3 5 5 5 4 3 3 3 3 3 3 4 4 4 4 3 2 1 1 2 5 7 10 9 6 4 5 4
6 8 8 7 4 1 2 4 5 3 2 2 4 5 4 2 3 4 5 6 6 6 5 5 6 7 6 7 7 7 6 5 5 4 4 3 2 3 6 9 10 7 3
5 6 6 6 6 5 3 2 2 2 3 2 3 4 3 5 5 5 6 7 7 7 5 5 4 4 4 3 6 6 2 3 5 8 10 6 5 5 4 2 5 9 10
3 2 2 2 2 2 2 3 5 5 4 4 4 3 6 4 -1 3 -2 -0 1 2 1 1 0 1 1 3 3 5 4 -0 0 1 3 10 10 7 7 6 4 2 3
3 2 3 3 4 5 5 5 5 5 4 4 4 7 4 1 -2 -1 -2 -1 1 2 3 3 2 3 4 4 3 3 5 7 10 10 9 7 5 7 9 8 9 8 4
3 4 4 4 4 4 2 2 4 6 6 7 8 5 2 0 -2 -3 1 2 1 3 4 5 5 4 3 3 4 7 6 4 3 1 1 1 1 2 4 7 10 5 9
5 5 4 4 3 1 1 5 7 6 6 5 4 2 2 1 -0 1 2 3 2 2 3 4 4 1 2 2 4 4 0 -2 -2 1 -2 1 -2 1 3 4 6 9 8
5 3 3 4 4 2 0 7 4 3 5 6 4 2 1 1 1 2 2 1 2 5 7 8 7 4 3 3 3 3 -0 5 4 3 1 2 2 3 2 3 1 2 2
4 3 3 4 3 3 2 4 2 2 2 4 5 6 5 4 3 3 2 3 8 6 6 5 4 3 5 4 3 2 2 -1 -0 0 -1 -1 0 3 3 3 -1 -1 9
3 3 3 3 3 5 5 5 2 -0 3 4 5 4 2 2 3 3 3 5 4 5 3 3 3 2 0 1 0 2 1 -0 -0 -1 2 3 -2 -5 -1 1 16 23 9
5 5 5 5 4 5 5 5 4 4 3 3 3 1 0 3 3 4 5 5 4 3 2 1 1 1 1 -1 -3 -1 3 3 -1 -4 5 2 -1 3 1 -1 -1 -3 -8
7 7 6 5 4 5 4 4 4 2 3 3 4 4 2 3 3 5 5 2 1 2 2 4 2 1 4 8 5 4 5 5 5 10 13 9 11 6 7 6 16 12 1
7 6 5 4 4 3 4 5 5 2 3 5 4 4 3 3 4 5 3 2 1 0 5 5 1 -4 2 3 2 4 6 9 7 9 8 14 9 17 21 25 14 13 19
5 4 5 4 4 7 7 5 3 3 6 6 5 4 4 3 5 5 5 3 5 5 4 5 8 10 6 5 5 2 9 8 8 -1 10 11 15 16 13 17 18 18 17
4 5 5 5 7 6 5 4 5 5 5 3 3 4 2 2 1 0 -0 1 2 4 6 6 4 3 3 2 9 6 8 14 15 11 2 9 15 16 16 15 13 14 18
7 7 7 8 6 6 6 5 4 5 4 5 5 4 3 3 4 3 3 5 6 8 7 3 8 6 2 5 7 10 14 15 20 18 23 21 16 13 10 9 6 6 5
6 8 9 6 5 5 5 6 6 6 6 7 6 3 2 3 4 5 6 6 5 5 6 4 6 6 8 9 18 17 16 15 17 18 17 20 16 17 16 16 19 25 17
Height
5822 5824 5824 5824 5822 5820 5820 5821 5821 5821 5824 5826 5828 5829 5831 5832 5833 5833 5834 5834 5834 5834 5834 5835 5834 5834 5833 5833 5832 5832 5831 5831 5832 5832 5833 5833 5833 5833 5834 5834 5834 5835 5835
5820 5823 5820 5823 5820 5819 5818 5817 5819 5824 5825 5826 5827 5829 5831 5832 5832 5833 5833 5834 5834 5833 5834 5833 5834 5834 5833 5833 5832 5832 5832 5832 5831 5832 5832 5832 5833 5833 5833 5834 5834 5834 5834
5816 5818 5814 5819 5820 5820 5819 5820 5823 5825 5826 5827 5828 5830 5831 5831 5831 5833 5833 5833 5834 5834 5834 5833 5833 5833 5833 5832 5833 5833 5833 5832 5832 5832 5832 5832 5832 5833 5833 5833 5833 5833 5833
5816 5814 5816 5818 5821 5821 5823 5824 5825 5826 5827 5827 5828 5828 5829 5830 5831 5831 5832 5832 5833 5832 5832 5832 5832 5832 5832 5832 5832 5832 5832 5831 5832 5832 5832 5832 5832 5831 5831 5831 5831 5832 5832
5815 5817 5818 5820 5822 5824 5823 5825 5825 5826 5826 5827 5827 5827 5827 5829 5829 5830 5830 5830 5831 5831 5831 5830 5830 5831 5831 5831 5831 5830 5830 5830 5830 5830 5830 5830 5831 5831 5831 5830 5830 5830 5831
5815 5817 5819 5820 5821 5823 5823 5824 5825 5825 5825 5825 5826 5826 5826 5827 5828 5829 5829 5829 5829 5829 5829 5829 5829 5829 5829 5829 5829 5829 5828 5829 5829 5829 5829 5829 5829 5830 5830 5830 5830 5829 5829
5816 5817 5819 5819 5820 5822 5822 5823 5824 5824 5823 5824 5824 5824 5826 5826 5827 5829 5828 5828 5828 5828 5828 5828 5828 5827 5827 5827 5827 5827 5827 5827 5827 5827 5827 5827 5827 5827 5827 5828 5828 5829 5829
5815 5816 5817 5818 5818 5819 5819 5820 5820 5820 5821 5823 5823 5823 5825 5826 5826 5827 5827 5827 5827 5827 5827 5827 5826 5827 5826 5825 5825 5825 5825 5825 5825 5824 5824 5825 5824 5824 5824 5823 5824 5825 5826
5814 5815 5816 5816 5817 5817 5818 5818 5818 5820 5821 5823 5822 5822 5823 5824 5824 5825 5826 5825 5825 5825 5824 5825 5825 5824 5824 5823 5823 5822 5822 5822 5822 5821 5821 5822 5820 5820 5820 5820 5821 5820 5821
5814 5814 5814 5815 5816 5817 5817 5819 5820 5821 5821 5821 5821 5820 5821 5822 5822 5823 5823 5822 5822 5822 5821 5821 5820 5820 5820 5820 5820 5819 5818 5818 5818 5818 5818 5818 5817 5817 5816 5816 5816 5816 5816
5813 5814 5814 5815 5816 5817 5818 5818 5818 5817 5819 5820 5818 5819 5820 5820 5820 5820 5819 5818 5818 5818 5817 5816 5815 5815 5815 5815 5814 5814 5814 5813 5812 5812 5812 5812 5811 5811 5811 5811 5811 5811 5810
5812 5813 5813 5814 5815 5815 5815 5815 5816 5817 5818 5816 5817 5817 5817 5817 5817 5815 5813 5814 5813 5812 5813 5812 5811 5811 5811 5810 5810 5809 5809 5808 5807 5806 5806 5806 5805 5805 5804 5804 5804 5805 5805
5811 5812 5812 5812 5812 5812 5812 5813 5813 5813 5813 5814 5813 5813 5812 5812 5811 5810 5809 5810 5809 5808 5807 5806 5806 5805 5804 5804 5803 5802 5802 5801 5801 5800 5799 5798 5797 5797 5797 5797 5797 5797 5797
5810 5811 5810 5809 5809 5809 5809 5809 5809 5809 5808 5808 5808 5807 5807 5807 5806 5805 5805 5805 5804 5803 5802 5801 5800 5798 5797 5796 5795 5794 5793 5793 5792 5791 5791 5790 5789 5789 5788 5787 5787 5788 5788
5806 5806 5806 5806 5805 5805 5805 5805 5804 5804 5803 5803 5803 5802 5802 5801 5800 5800 5799 5798 5797 5795 5794 5793 5791 5790 5789 5788 5786 5786 5785 5783 5783 5782 5781 5780 5779 5779 5778 5778 5777 5777 5777
5802 5801 5801 5801 5801 5801 5801 5801 5800 5799 5798 5798 5797 5797 5796 5795 5793 5792 5791 5789 5788 5786 5784 5783 5781 5780 5779 5777 5776 5774 5774 5772 5771 5770 5770 5770 5769 5768 5767 5767 5767 5766 5766
5796 5796 5796 5796 5797 5796 5795 5795 5794 5793 5793 5792 5790 5789 5788 5787 5785 5784 5782 5781 5779 5777 5775 5773 5772 5770 5769 5768 5766 5764 5763 5761 5759 5758 5757 5757 5756 5755 5754 5753 5754 5754 5753
5791 5791 5791 5791 5791 5790 5789 5788 5787 5786 5785 5784 5783 5782 5780 5779 5777 5775 5773 5771 5769 5766 5764 5763 5761 5759 5758 5756 5754 5752 5750 5748 5745 5743 5741 5741 5739 5737 5738 5738 5737 5737 5738
5784 5785 5785 5784 5784 5783 5782 5781 5780 5779 5778 5776 5775 5773 5771 5769 5767 5765 5762 5759 5756 5753 5751 5749 5747 5744 5742 5741 5739 5735 5732 5728 5725 5722 5720 5717 5714 5714 5715 5715 5714 5715 5715
5777 5777 5777 5776 5776 5775 5774 5773 5772 5770 5769 5767 5765 5763 5761 5758 5755 5752 5749 5746 5743 5740 5737 5735 5733 5730 5727 5725 5723 5720 5717 5712 5708 5705 5703 5700 5695 5693 5693 5694 5693 5692 5692
5768 5768 5768 5767 5767 5766 5765 5763 5762 5761 5759 5756 5754 5752 5749 5746 5743 5740 5737 5734 5731 5727 5725 5722 5719 5715 5711 5707 5706 5704 5699 5695 5687 5688 5681 5678 5673 5668 5666 5668 5668 5667 5669
5761 5761 5760 5759 5758 5757 5756 5754 5753 5751 5748 5746 5743 5740 5737 5734 5731 5728 5724 5720 5716 5713 5709 5706 5702 5699 5694 5688 5685 5682 5681 5675 5665 5662 5655 5650 5645 5642 5639 5640 5636 5636 5638
5752 5752 5751 5750 5749 5747 5746 5744 5742 5739 5737 5734 5731 5728 5724 5721 5717 5713 5710 5706 5703 5699 5695 5690 5684 5679 5676 5668 5661 5655 5655 5651 5644 5637 5629 5621 5617 5612 5608 5605 5604 5604 5607
5743 5742 5741 5740 5739 5737 5735 5733 5730 5727 5724 5721 5718 5715 5711 5708 5704 5700 5697 5693 5688 5683 5677 5672 5666 5659 5653 5648 5639 5629 5620 5614 5608 5616 5607 5595 5585 5579 5577 5574 5574 5575 5576
5734 5732 5731 5730 5728 5726 5724 5722 5718 5715 5712 5709 5706 5702 5698 5694 5690 5687 5682 5676 5671 5665 5658 5652 5645 5636 5628 5620 5612 5602 5592 5583 5572 5561 5568 5567 5556 5548 5547 5545 5545 5546 5547
5723 5722 5721 5719 5717 5715 5712 5709 5706 5703 5700 5697 5693 5690 5685 5681 5676 5670 5664 5659 5652 5645 5637 5629 5622 5613 5603 5593 5583 5572 5562 5553 5543 5530 5523 5530 5520 5520 5514 5511 5511 5512 5514